Sable Island, Nova Scotia

11:17 AM ADT on October 18, 2017 (GMT -0300)
Sable Island

Weather History for CWSA - December, 2012

Change the Weather History Date:

Saturday, December 15, 2012

  Actual Average Record
Temperature  
Mean Temperature 34 °F -  
Max Temperature 43 °F 39 °F 51 °F (2006)
Min Temperature 24 °F 28 °F 14 °F (1997)
Degree Days  
Heating Degree Days 32    
Moisture  
Dew Point 24 °F    
Average Humidity 70    
Maximum Humidity 87    
Minimum Humidity 40    
Precipitation  
Precipitation 0.04 in 0.19 in - ()
Sea Level Pressure  
Sea Level Pressure 29.94 in    
Wind  
Wind Speed 24 mph ()    
Max Wind Speed 39 mph    
Max Gust Speed 44 mph    
Visibility 5.7 miles    
Events Rain , Snow    
Averages and records for this station are not official NWS values.
T = Trace of Precipitation, MM = Missing Value Source: Averaged Metar Reports

Daily Weather History Graph

Daily Weather History Graph

Search for Another Location

Airport or City:

Trip Planner

Search our weather history database for the weather conditions in past years. The results will help you decide how hot, cold, wet, or windy it might be!

Date:

Astronomy

Dec. 15, 2012 Rise Set
Actual Time 7:27 AM AST 4:23 PM AST
Civil Twilight 6:54 AM AST 4:56 PM AST
Nautical Twilight 6:18 AM AST 5:32 PM AST
Astronomical Twilight 5:43 AM AST 6:07 PM AST
Moon 9:13 AM AST (12/15) 7:25 PM AST (12/15)
Length of Visible Light 10h 01m
Length of Day
8h 55m
Waxing Crescent, 8% of the Moon is Illuminated
Dec 15
Waxing Crescent
Dec 20
First Quarter
Dec 28
Full
Jan 4
Last Quarter
Jan 11
New

Hourly Weather History & Observations

Time (AST) Temp. Windchill Dew Point Humidity Pressure Visibility Wind Dir Wind Speed Gust Speed Precip Events Conditions
12:00 AM 41.0 °F 31.4 °F 33.8 °F 76% 29.92 in 5.0 mi SSW 21.9 mph 27.6 mph N/A Rain Light Rain
12:14 AM 42.8 °F 34.0 °F 35.6 °F 76% 29.90 in 9.0 mi SW 20.7 mph 27.6 mph N/A   Overcast
12:33 AM 42.8 °F 34.3 °F 35.6 °F 76% 29.90 in 9.0 mi SW 19.6 mph 25.3 mph N/A   Overcast
12:41 AM 42.8 °F 34.5 °F 35.6 °F 76% 29.89 in 9.0 mi SW 18.4 mph 24.2 mph N/A Rain Light Rain
12:53 AM 42.8 °F 34.0 °F 35.6 °F 76% 29.89 in 9.0 mi SW 20.7 mph - N/A Rain Light Rain
1:00 AM 42.8 °F 34.3 °F 35.6 °F 76% 29.88 in 9.0 mi SW 19.6 mph 25.3 mph N/A Rain Light Rain
1:12 AM 42.8 °F 34.3 °F 35.6 °F 76% 29.87 in 9.0 mi SW 19.6 mph - N/A   Overcast
2:00 AM 43 °F - 38 °F 75% 29.86 in 7 mi SW 24.2 mph - -   Unknown Precipitation
2:06 AM 41.0 °F 31.4 °F 33.8 °F 76% 29.86 in 5.0 mi West 21.9 mph 32.2 mph N/A   Unknown
2:08 AM 41.0 °F 31.1 °F 33.8 °F 76% 29.86 in 4.0 mi WSW 23.0 mph 32.2 mph N/A Rain Rain
2:20 AM 41.0 °F 30.7 °F 35.6 °F 81% 29.86 in 9.0 mi WSW 25.3 mph 31.1 mph N/A   Unknown
2:37 AM 42.8 °F 33.5 °F 35.6 °F 76% 29.86 in 9.0 mi SW 23.0 mph - N/A   Mostly Cloudy
3:00 AM 42.8 °F 34.5 °F 35.6 °F 76% 29.85 in 9.0 mi SW 18.4 mph 24.2 mph N/A   Mostly Cloudy
3:19 AM 42.8 °F 33.8 °F 37.4 °F 81% 29.84 in 9.0 mi SW 21.9 mph - N/A Rain Light Rain
3:22 AM 41.0 °F 31.6 °F 37.4 °F 87% 29.85 in 7.0 mi West 20.7 mph - N/A Rain Light Rain
3:25 AM 39.2 °F 30.5 °F 35.6 °F 87% 29.85 in 5.0 mi West 16.1 mph 24.2 mph N/A Rain Light Rain
3:36 AM 41.0 °F 33.9 °F 37.4 °F 87% 29.85 in 6.0 mi West 12.7 mph 20.7 mph N/A   Overcast
4:00 AM 42.8 °F 34.8 °F 35.6 °F 76% 29.84 in 9.0 mi West 17.3 mph 24.2 mph N/A   Overcast
4:07 AM 42.8 °F 35.8 °F 37.4 °F 81% 29.84 in 9.0 mi West 13.8 mph 24.2 mph N/A   Overcast
5:00 AM 42 °F - 33 °F 62% 29.85 in 9 mi WNW 24.2 mph - -   Overcast
5:00 AM 42.8 °F 33.5 °F 33.8 °F 70% 29.85 in 9.0 mi NW 23.0 mph 31.1 mph N/A   Overcast
5:11 AM 41.0 °F 31.4 °F 33.8 °F 76% 29.85 in 9.0 mi NW 21.9 mph 31.1 mph N/A   Overcast
6:00 AM 41.0 °F 30.2 °F 32.0 °F 70% 29.86 in 9.0 mi WNW 27.6 mph 34.5 mph N/A   Overcast
6:37 AM 41.0 °F 30.7 °F 30.2 °F 65% 29.87 in 9.0 mi WNW 25.3 mph 31.1 mph N/A   Overcast
7:00 AM 41.0 °F 31.4 °F 30.2 °F 65% 29.88 in 9.0 mi WNW 21.9 mph - N/A   Overcast
7:12 AM 39.2 °F 28.7 °F 30.2 °F 70% 29.88 in 9.0 mi WNW 23.0 mph 28.8 mph N/A   Overcast
7:18 AM 39.2 °F 28.5 °F 28.4 °F 65% 29.88 in 9.0 mi WNW 24.2 mph 31.1 mph N/A Rain Light Rain
7:22 AM 39.2 °F 29.0 °F 28.4 °F 65% 29.88 in 9.0 mi NW 21.9 mph 31.1 mph N/A   Overcast
8:00 AM 39 °F - 28 °F 52% 29.89 in 9 mi WNW 21.9 mph - -   Unknown Precipitation
8:00 AM 39.2 °F 29.3 °F 28.4 °F 65% 29.89 in 9.0 mi WNW 20.7 mph 28.8 mph N/A   Overcast
9:00 AM 39.2 °F 28.7 °F 28.4 °F 65% 29.90 in 9.0 mi WNW 23.0 mph 31.1 mph N/A   Overcast
10:00 AM 39.2 °F 27.4 °F 26.6 °F 61% 29.92 in 9.0 mi WNW 29.9 mph 35.7 mph N/A   Overcast
11:00 AM 38 °F - 23 °F 42% 29.92 in 9 mi WNW 21.9 mph - -  
11:00 AM 37.4 °F 26.1 °F 23.0 °F 56% 29.92 in 9.0 mi West 24.2 mph 29.9 mph N/A   Partly Cloudy
12:00 PM 37.4 °F 26.4 °F 24.8 °F 60% 29.90 in 9.0 mi WNW 23.0 mph 36.8 mph N/A   Mostly Cloudy
12:25 PM 37.4 °F 25.6 °F 26.6 °F 65% 29.89 in 9.0 mi WNW 26.5 mph - N/A   Overcast
12:28 PM 35.6 °F 23.0 °F 28.4 °F 75% 29.89 in 5.0 mi NW 27.6 mph 34.5 mph N/A Snow Light Snow
12:30 PM 33.8 °F 20.3 °F 28.4 °F 81% 29.89 in 3.0 mi NW 28.8 mph 36.8 mph N/A Snow Light Snow
12:31 PM 33.8 °F 21.0 °F 28.4 °F 81% 29.89 in 2.0 mi NW 25.3 mph 36.8 mph N/A Snow Light Snow
12:36 PM 33.8 °F 22.5 °F 28.4 °F 81% 29.89 in 1.2 mi NW 19.6 mph 36.8 mph N/A Snow Light Snow
12:44 PM 35.6 °F 21.9 °F 26.6 °F 70% 29.88 in 3.0 mi NW 33.4 mph 40.3 mph N/A Snow Light Snow
12:49 PM 37.4 °F 25.4 °F 28.4 °F 70% 29.88 in 9.0 mi NW 27.6 mph 40.3 mph N/A Snow Light Snow
12:54 PM 37.4 °F 25.0 °F 28.4 °F 70% 29.88 in 9.0 mi NW 29.9 mph 35.7 mph N/A   Overcast
1:00 PM 37.4 °F 24.8 °F 26.6 °F 65% 29.89 in 9.0 mi NW 31.1 mph 36.8 mph N/A   Overcast
1:15 PM 33.8 °F 20.8 °F 28.4 °F 81% 29.90 in 3.0 mi NW 26.5 mph 39.1 mph N/A Snow Light Snow
1:16 PM 33.8 °F 20.8 °F 28.4 °F 81% 29.90 in 3.0 mi NW 26.5 mph 39.1 mph N/A Snow Light Snow
1:17 PM 33.8 °F 20.5 °F 26.6 °F 75% 29.90 in 2.4 mi NW 27.6 mph 39.1 mph N/A Snow Light Snow
1:36 PM 35.6 °F 22.1 °F 26.6 °F 70% 29.90 in 9.0 mi NW 32.2 mph 39.1 mph N/A Snow Light Snow
1:37 PM 35.6 °F 21.7 °F 24.8 °F 65% 29.90 in 9.0 mi NW 34.5 mph - N/A   Unknown
1:41 PM 35.6 °F 22.5 °F 26.6 °F 70% 29.90 in 9.0 mi NW 29.9 mph 41.4 mph N/A   Unknown
1:43 PM 33.8 °F 19.2 °F 28.4 °F 81% 29.90 in 7.0 mi NW 34.5 mph 41.4 mph N/A Snow Light Snow
1:53 PM 33.8 °F 19.9 °F 26.6 °F 75% 29.91 in 3.0 mi NW 31.1 mph 39.1 mph N/A Snow Light Snow
1:54 PM 32.0 °F 17.4 °F 26.6 °F 80% 29.91 in 2.0 mi NW 31.1 mph 39.1 mph N/A Snow Light Snow
1:56 PM 32.0 °F 18.6 °F 26.6 °F 80% 29.91 in 1.4 mi NW 25.3 mph 38.0 mph N/A Snow Light Snow
1:58 PM 32.0 °F 18.4 °F 26.6 °F 80% 29.91 in 1.0 mi NW 26.5 mph 38.0 mph N/A Snow Light Snow
2:00 PM 32 °F - 27 °F 76% 29.91 in 1 mi NW 28.8 mph - -   Unknown Precipitation
2:00 PM 32.0 °F 17.6 °F 26.6 °F 80% 29.91 in 0.6 mi NW 29.9 mph 38.0 mph N/A Snow Light Snow
2:01 PM 32.0 °F 17.6 °F 26.6 °F 80% 29.91 in 0.6 mi NW 29.9 mph 36.8 mph N/A Snow Light Snow
2:11 PM 33.8 °F 20.3 °F 26.6 °F 75% 29.91 in 1.1 mi NW 28.8 mph - N/A Snow Light Snow
2:14 PM 32.0 °F 18.1 °F 26.6 °F 80% 29.91 in 3.0 mi NNW 27.6 mph 35.7 mph N/A Snow Light Snow
2:21 PM 33.8 °F 21.0 °F 26.6 °F 75% 29.90 in 9.0 mi NW 25.3 mph 35.7 mph N/A Snow Light Snow
2:23 PM 33.8 °F 20.5 °F 24.8 °F 70% 29.90 in 9.0 mi NNW 27.6 mph 35.7 mph N/A   Mostly Cloudy
2:31 PM 33.8 °F 20.1 °F 24.8 °F 70% 29.91 in 9.0 mi NW 29.9 mph 36.8 mph N/A   Overcast
2:49 PM 32.0 °F 17.2 °F 26.6 °F 80% 29.92 in 4.0 mi NW 32.2 mph 39.1 mph N/A Snow Light Snow
2:50 PM 32.0 °F 17.2 °F 26.6 °F 80% 29.92 in 3.0 mi NW 32.2 mph 39.1 mph N/A Snow Light Snow
2:51 PM 32.0 °F 17.0 °F 26.6 °F 80% 29.92 in 2.0 mi NW 33.4 mph 40.3 mph N/A Snow Light Snow
3:00 PM 32.0 °F 17.6 °F 24.8 °F 75% 29.93 in 2.5 mi NW 29.9 mph 40.3 mph N/A Snow Light Snow
3:08 PM 32.0 °F 18.1 °F 23.0 °F 69% 29.92 in 2.5 mi NW 27.6 mph 36.8 mph N/A   Unknown
3:10 PM 33.8 °F 20.1 °F 23.0 °F 65% 29.92 in 5.0 mi NW 29.9 mph 36.8 mph N/A   Unknown
3:17 PM 33.8 °F 19.6 °F 26.6 °F 75% 29.93 in 6.0 mi NNW 32.2 mph 41.4 mph N/A Snow Light Snow
3:18 PM 32.0 °F 17.4 °F 26.6 °F 80% 29.93 in 5.0 mi NNW 31.1 mph 41.4 mph N/A   Overcast
3:33 PM 32.0 °F 17.6 °F 23.0 °F 69% 29.94 in 4.0 mi NW 29.9 mph 35.7 mph N/A Snow Light Snow
3:34 PM 32.0 °F 17.0 °F 24.8 °F 75% 29.94 in 3.0 mi NW 33.4 mph - N/A Snow Light Snow
3:36 PM 30.2 °F 15.2 °F 24.8 °F 80% 29.94 in 2.1 mi NW 29.9 mph 35.7 mph N/A Snow Light Snow
3:54 PM 33.8 °F 20.3 °F 21.2 °F 60% 29.94 in 6.0 mi NW 28.8 mph 36.8 mph N/A Snow Light Snow
4:00 PM 33.8 °F 20.3 °F 23.0 °F 65% 29.95 in 6.0 mi NW 28.8 mph 36.8 mph N/A Snow Light Snow
4:04 PM 30.2 °F 14.1 °F 23.0 °F 75% 29.95 in 2.1 mi NW 35.7 mph - N/A Snow Light Snow
4:10 PM 30.2 °F 15.7 °F 21.2 °F 69% 29.95 in 1.4 mi NW 27.6 mph 40.3 mph N/A Snow Light Snow
4:19 PM 32.0 °F 18.6 °F 24.8 °F 75% 29.95 in 3.0 mi NW 25.3 mph 35.7 mph N/A Snow Light Snow
4:53 PM 30.2 °F 15.2 °F 23.0 °F 75% 29.96 in 2.2 mi NW 29.9 mph 38.0 mph N/A Snow Light Snow
5:00 PM 31 °F - 24 °F 66% 29.97 in 2 mi NW 28.8 mph - - Snow Light Snow
5:00 PM 30.2 °F 14.7 °F 24.8 °F 80% 29.97 in 2.0 mi NW 32.2 mph 38.0 mph N/A Snow Light Snow
5:12 PM 30.2 °F 15.4 °F 24.8 °F 80% 29.97 in 1.4 mi WNW 28.8 mph 36.8 mph N/A Snow Light Snow
5:15 PM 30.2 °F 15.4 °F 24.8 °F 80% 29.97 in 1.0 mi NW 28.8 mph 38.0 mph N/A Snow Light Snow
5:18 PM 30.2 °F 14.9 °F 24.8 °F 80% 29.97 in 0.6 mi NNW 31.1 mph 38.0 mph N/A Snow Light Snow
5:19 PM 30.2 °F 15.4 °F 24.8 °F 80% 29.97 in 0.6 mi NW 28.8 mph 38.0 mph N/A Snow Light Snow
5:25 PM 30.2 °F 15.9 °F 23.0 °F 75% 29.97 in 1.0 mi NW 26.5 mph 36.8 mph N/A Snow Light Snow
5:47 PM 30.2 °F 14.5 °F 23.0 °F 75% 29.98 in 3.5 mi NW 33.4 mph 39.1 mph N/A Snow Light Snow
5:52 PM 30.2 °F 15.7 °F 23.0 °F 75% 29.98 in 5.0 mi NW 27.6 mph 39.1 mph N/A Snow Light Snow
5:56 PM 30.2 °F 15.4 °F 23.0 °F 75% 29.98 in 2.5 mi NW 28.8 mph 36.8 mph N/A Snow Light Snow
6:00 PM 30.2 °F 14.5 °F 23.0 °F 75% 29.99 in 2.1 mi NNW 33.4 mph 39.1 mph N/A Snow Light Snow
6:03 PM 28.4 °F 12.7 °F 21.2 °F 74% 29.99 in 1.4 mi NW 29.9 mph 42.6 mph N/A Snow Light Snow
6:12 PM 30.2 °F 15.4 °F 21.2 °F 69% 29.98 in 3.0 mi NW 28.8 mph 36.8 mph N/A Snow Light Snow
6:20 PM 28.4 °F 12.3 °F 19.4 °F 69% 29.99 in 9.0 mi NW 32.2 mph 39.1 mph N/A   Mostly Cloudy
6:21 PM 28.4 °F 12.7 °F 21.2 °F 74% 29.99 in 6.0 mi NW 29.9 mph 39.1 mph N/A Snow Light Snow
6:22 PM 28.4 °F 13.3 °F 21.2 °F 74% 29.99 in 3.5 mi NW 27.6 mph 39.1 mph N/A Snow Light Snow
6:23 PM 28.4 °F 13.8 °F 21.2 °F 74% 29.99 in 2.5 mi NW 25.3 mph 39.1 mph N/A Snow Light Snow
6:41 PM 30.2 °F 15.2 °F 17.6 °F 60% 29.99 in 2.5 mi NW 29.9 mph 40.3 mph N/A   Mostly Cloudy
6:42 PM 30.2 °F 14.9 °F 17.6 °F 60% 29.99 in 9.0 mi NW 31.1 mph 40.3 mph N/A   Mostly Cloudy
6:48 PM 30.2 °F 15.7 °F 19.4 °F 64% 29.99 in 9.0 mi NNW 27.6 mph 40.3 mph N/A   Mostly Cloudy
7:00 PM 30.2 °F 14.7 °F 19.4 °F 64% 30.01 in 9.0 mi NW 32.2 mph - N/A   Mostly Cloudy
7:02 PM 30.2 °F 15.4 °F 19.4 °F 64% 30.00 in 9.0 mi NW 28.8 mph 36.8 mph N/A Snow Light Snow
7:04 PM 30.2 °F 15.9 °F 19.4 °F 64% 30.00 in 7.0 mi NNW 26.5 mph 36.8 mph N/A   Mostly Cloudy
7:07 PM 30.2 °F 15.2 °F 17.6 °F 60% 30.00 in 6.0 mi NW 29.9 mph 39.1 mph N/A Rain Light Freezing Rain
7:14 PM 30.2 °F 14.9 °F 21.2 °F 69% 30.01 in 9.0 mi NW 31.1 mph 39.1 mph N/A   Overcast
7:33 PM 30.2 °F 15.7 °F 15.8 °F 55% 30.01 in 7.0 mi NW 27.6 mph 39.1 mph N/A Snow Light Snow
7:48 PM 28.4 °F 12.3 °F 17.6 °F 64% 30.01 in 9.0 mi NW 32.2 mph 38.0 mph N/A   Overcast
8:00 PM 29 °F - 17 °F 47% 30.02 in 9 mi NW 27.6 mph - -   Unknown Precipitation
8:00 PM 28.4 °F 13.5 °F 15.8 °F 59% 30.02 in 9.0 mi NNW 26.5 mph 40.3 mph N/A   Overcast
8:01 PM 28.4 °F 13.0 °F 19.4 °F 69% 30.02 in 7.0 mi NNW 28.8 mph 40.3 mph N/A Snow Light Snow
8:10 PM 28.4 °F 13.8 °F 19.4 °F 69% 30.02 in 5.0 mi NW 25.3 mph 35.7 mph N/A Snow Light Snow
8:16 PM 28.4 °F 13.3 °F 17.6 °F 64% 30.02 in 9.0 mi WNW 27.6 mph 36.8 mph N/A   Overcast
8:34 PM 28.4 °F 13.0 °F 15.8 °F 59% 30.02 in 7.0 mi WNW 28.8 mph 35.7 mph N/A Snow Light Snow
8:35 PM 28.4 °F 12.7 °F 15.8 °F 59% 30.02 in 7.0 mi WNW 29.9 mph - N/A   Overcast
8:46 PM 26.6 °F 10.6 °F 15.8 °F 64% 30.03 in 6.0 mi NW 28.8 mph 40.3 mph N/A   Overcast
8:50 PM 26.6 °F 11.1 °F 17.6 °F 69% 30.02 in 3.5 mi NW 26.5 mph 40.3 mph N/A Snow Light Snow
8:52 PM 26.6 °F 10.3 °F 17.6 °F 69% 30.02 in 2.1 mi NW 29.9 mph 35.7 mph N/A Snow Light Snow
9:00 PM 28.4 °F 13.5 °F 15.8 °F 59% 30.03 in 2.1 mi NW 26.5 mph 35.7 mph N/A Snow Light Snow
9:08 PM 28.4 °F 13.5 °F 15.8 °F 59% 30.02 in 2.5 mi NW 26.5 mph 36.8 mph N/A   Unknown
9:11 PM 28.4 °F 13.0 °F 17.6 °F 64% 30.02 in 9.0 mi NW 28.8 mph 36.8 mph N/A   Unknown
9:21 PM 28.4 °F 12.7 °F 17.6 °F 64% 30.03 in 8.0 mi NW 29.9 mph 40.3 mph N/A Snow Light Snow
9:27 PM 26.6 °F 10.3 °F 17.6 °F 69% 30.03 in 2.5 mi NW 29.9 mph 39.1 mph N/A Snow Light Snow
9:30 PM 24.8 °F 9.6 °F 17.6 °F 74% 30.03 in 1.2 mi WNW 23.0 mph 39.1 mph N/A Snow Light Snow
9:34 PM 24.8 °F 8.7 °F 17.6 °F 74% 30.03 in 1.0 mi NW 26.5 mph 39.1 mph N/A Snow Light Snow
9:40 PM 26.6 °F 10.8 °F 15.8 °F 64% 30.02 in 1.5 mi NW 27.6 mph 39.1 mph N/A Snow Light Snow
9:53 PM 26.6 °F 10.0 °F 12.2 °F 55% 30.02 in 6.0 mi NW 31.1 mph 39.1 mph N/A Snow Light Snow
10:00 PM 26.6 °F 10.6 °F 12.2 °F 55% 30.03 in 9.0 mi NW 28.8 mph 40.3 mph N/A Snow Light Snow
10:01 PM 26.6 °F 10.8 °F 10.4 °F 51% 30.02 in 9.0 mi NW 27.6 mph 40.3 mph N/A   Unknown
10:07 PM 26.6 °F 10.6 °F 14.0 °F 59% 30.02 in 9.0 mi NNW 28.8 mph 36.8 mph N/A Snow Light Snow
10:13 PM 26.6 °F 10.3 °F 10.4 °F 51% 30.02 in 8.0 mi NW 29.9 mph 38.0 mph N/A   Overcast
10:21 PM 26.6 °F 10.3 °F 12.2 °F 55% 30.02 in 9.0 mi NNW 29.9 mph 38.0 mph N/A   Overcast
10:54 PM 26.6 °F 10.3 °F 15.8 °F 64% 30.02 in 8.0 mi NW 29.9 mph 38.0 mph N/A Snow Light Snow
11:00 PM 27 °F - 12 °F 40% 30.02 in 7 mi NW 28.8 mph - - Snow Light Snow
11:00 PM 26.6 °F 10.3 °F 12.2 °F 55% 30.02 in 7.0 mi NW 29.9 mph 38.0 mph N/A Snow Light Snow
11:22 PM 26.6 °F 9.8 °F 12.2 °F 55% 30.02 in 8.0 mi NW 32.2 mph - N/A   Overcast
11:23 PM 26.6 °F 10.8 °F 14.0 °F 59% 30.02 in 7.0 mi NW 27.6 mph 36.8 mph N/A Snow Light Snow
11:33 PM 26.6 °F 10.3 °F 15.8 °F 64% 30.02 in 5.0 mi NW 29.9 mph 39.1 mph N/A Snow Light Snow
11:56 PM 26.6 °F 10.0 °F 15.8 °F 64% 30.02 in 2.4 mi NW 31.1 mph 42.6 mph N/A Snow Light Snow
11:57 PM 24.8 °F 6.0 °F 17.6 °F 74% 30.02 in 1.5 mi NW 39.1 mph - N/A Snow Light Snow
11:58 PM 24.8 °F 6.8 °F 19.4 °F 80% 30.02 in 1.1 mi NW 34.5 mph 43.7 mph N/A Snow Light Snow